Weather History for Fitchburg, MA

Change the Weather History Date:

Tuesday, January 10, 2012

  Actual Average (KORH) Record (KORH)
Temperature  
Mean Temperature 34 °F 24 °F  
Max Temperature 44 °F 31 °F 53 °F (1939)
Min Temperature 25 °F 17 °F -8 °F (2004)
Degree Days  
Heating Degree Days 30 41  
Month to date heating degree days 406  
Since 1 July heating degree days 2910  
Cooling Degree Days 0 0  
Month to date cooling degree days 0  
Year to date cooling degree days 0  
Moisture  
Dew Point 24 °F    
Average Humidity 66    
Maximum Humidity 85    
Minimum Humidity 49    
Precipitation  
Precipitation 0.00 in 0.11 in 2.89 in (1935)
Month to date precipitation 1.09  
Year to date precipitation 1.09  
Snow  
Snow 0.00 in 0.60 in 7.40 in (1977)
Month to date snowfall 5.5  
Since 1 July snowfall 22.7  
Snow Depth -    
Sea Level Pressure  
Sea Level Pressure 29.87 in    
Wind  
Wind Speed 5 mph (West)    
Max Wind Speed 17 mph    
Max Gust Speed 21 mph    
Visibility 10 miles    
Events      
T = Trace of Precipitation, MM = Missing Value Source: NWS Daily Summary

Daily Weather History Graph

Daily Weather History Graph

Search for Another Location

Airport:

Trip Planner

Search our weather history database for the weather conditions in past years. The results will help you decide how hot, cold, wet, or windy it might be!

Date:

Astronomy

Jan. 10, 2012 Rise Set
Actual Time 7:16 AM EST 4:32 PM EST
Civil Twilight 6:44 AM EST 5:04 PM EST
Nautical Twilight 6:09 AM EST 5:39 PM EST
Astronomical Twilight 5:35 AM EST 6:13 PM EST
Moon 6:24 PM EST (1/10) 7:50 AM EST (1/10)
Length of Visible Light 10h 19m
Length of Day
9h 16m
Full, 98% of the Moon is Illuminated
Jan 10
Full
Jan 16
Last Quarter
Jan 23
New
Jan 30
First Quarter
Feb 7
Full

Hourly Weather History & Observations

Time (EST) Temp. Windchill Dew Point Humidity Pressure Visibility Wind Dir Wind Speed Gust Speed Precip Events Conditions
12:52 AM 35.1 °F 32.2 °F 23.0 °F 61% 29.95 in 10.0 mi South 3.5 mph - N/A   Partly Cloudy
1:52 AM 34.0 °F 31.0 °F 23.0 °F 64% 29.93 in 10.0 mi South 3.5 mph - N/A   Overcast
2:52 AM 35.1 °F 30.1 °F 26.1 °F 70% 29.92 in 10.0 mi Variable 5.8 mph - N/A   Mostly Cloudy
3:52 AM 34.0 °F 31.0 °F 25.0 °F 70% 29.89 in 10.0 mi SSW 3.5 mph - N/A   Mostly Cloudy
4:52 AM 33.1 °F 30.0 °F 25.0 °F 72% 29.86 in 10.0 mi SSE 3.5 mph - N/A   Mostly Cloudy
5:52 AM 26.1 °F - 21.9 °F 84% 29.84 in 10.0 mi Calm Calm - N/A   Clear
6:52 AM 25.0 °F 19.3 °F 21.0 °F 85% 29.84 in 10.0 mi NW 4.6 mph - N/A   Clear
7:52 AM 32.0 °F 26.4 °F 23.0 °F 69% 29.85 in 10.0 mi North 5.8 mph - N/A   Scattered Clouds
9:52 AM 36.0 °F 31.1 °F 21.9 °F 57% 29.85 in 10.0 mi WSW 5.8 mph - N/A   Overcast
10:52 AM 37.9 °F 29.2 °F 23.0 °F 55% 29.83 in 10.0 mi WSW 15.0 mph - N/A   Overcast
11:52 AM 42.1 °F 36.6 °F 24.1 °F 49% 29.80 in 10.0 mi West 9.2 mph 20.7 mph N/A   Scattered Clouds
1:52 PM 44.1 °F 36.5 °F 27.0 °F 51% 29.78 in 10.0 mi West 17.3 mph - N/A   Clear
2:52 PM 43.0 °F 38.8 °F 27.0 °F 53% 29.78 in 10.0 mi West 6.9 mph 16.1 mph N/A   Overcast
3:52 PM 42.1 °F 36.1 °F 26.1 °F 53% 29.81 in 10.0 mi West 10.4 mph - N/A   Overcast
4:52 PM 41.0 °F 36.4 °F 25.0 °F 53% 29.84 in 10.0 mi WNW 6.9 mph - N/A   Overcast
5:52 PM 39.0 °F 34.8 °F 25.0 °F 57% 29.88 in 10.0 mi WNW 5.8 mph - N/A   Mostly Cloudy
6:52 PM 37.0 °F 34.5 °F 25.0 °F 62% 29.88 in 10.0 mi WNW 3.5 mph - N/A   Mostly Cloudy
7:52 PM 35.1 °F 32.2 °F 24.1 °F 64% 29.90 in 10.0 mi West 3.5 mph - N/A   Clear
8:52 PM 30.0 °F - 23.0 °F 75% 29.92 in 10.0 mi Calm Calm - N/A   Clear
9:52 PM 26.1 °F 21.9 °F 21.9 °F 84% 29.94 in 10.0 mi NW 3.5 mph - N/A   Clear
10:52 PM 28.9 °F - 24.1 °F 82% 29.95 in 10.0 mi Calm Calm - N/A   Mostly Cloudy
11:52 PM 27.0 °F - 23.0 °F 85% 29.97 in 10.0 mi Calm Calm - N/A   Mostly Cloudy